SCP
0 -0 -0 0 0 0 -0 -0 -0 -0 -0 0 0 0 0 0 0 0 0 0 0 0 0 0 -0 -0 -0 -0 -0 -0 -0 -0 -0 -0 -0 -0 -0 0 0 0 -0 0 0 0 0 0 0 0 0
0 0 0 0 0 0 0 -0 -0 0 0 -0 0 0 -0 -0 0 0 -0 0 -0 0 0 0 -0 0 0 0 -0 -0 -0 -0 -0 -0 -0 -0 0 0 -0 -0 0 0 0 0 0 0 0 0 0
0 0 0 0 0 0 0 -0 -0 0 0 0 0 0 0 -0 0 0 0 -0 -0 -0 -0 0 -0 -0 -0 -0 0 0 0 -0 0 -0 -0 -0 -0 -0 -0 -0 -0 -0 -0 0 0 0 0 0 0
0 0 0 0 0 0 -0 0 0 0 0 0 0 0 0 0 0 -0 -0 -0 -0 -0 0 -0 -0 -0 -0 -0 -0 -0 -0 -0 -0 -0 -0 -0 -0 -0 -0 -0 -0 -0 -0 -0 0 0 0 0 0
0 0 0 0 0 0 0 0 0 0 0 0 0 0 0 0 0 0 -0 -0 -0 -0 0 -0 -0 -0 -0 -0 -0 -0 -0 -0 -0 -0 -0 -0 -0 -0 -0 -0 -0 -0 -0 -0 0 0 0 0 0
0 0 0 0 0 0 0 0 0 0 0 0 0 0 0 0 0 0 -0 -0 -0 -0 -0 -0 -0 -0 -0 -0 -0 -0 -0 -0 -0 -0 -0 -0 -0 -0 -0 -0 -0 -0 -0 -0 -0 0 0 0 0
0 0 0 0 0 0 0 0 0 0 0 0 0 0 0 0 0 0 0 0 -0 -0 -0 -0 -0 -0 -0 -0 -0 -0 -0 -0 -0 -0 -0 -0 -0 -0 -0 -0 -0 -0 -0 -0 -0 0 0 0 0
0 0 0 0 0 0 0 0 0 0 0 0 0 0 0 0 0 0 0 0 0 0 0 0 0 0 -0 -0 -0 -0 -0 -0 -0 -0 -0 -0 -0 -0 -0 0 -0 -0 -0 -0 0 0 0 0 0
0 0 0 0 0 0 0 0 0 0 0 0 0 0 0 0 0 0 0 0 0 0 0 0 0 0 0 0 0 -0 0 -0 -0 -0 -0 0 0 0 0 0 0 0 0 0 0 0 0 0 0
0 0 0 0 0 0 0 0 0 0 0 0 0 0 0 0 0 0 0 0 0 0 0 0 0 0 0 0 0 0 0 0 0 0 0 0 0 0 0 0 0 0 0 0 0 0 0 0 0
0 0 0 0 0 0 0 0 0 0 0 0 0 0 0 0 0 0 0 0 0 0 0 0 0 0 0 0 0 0 0 0 0 0 0 0 0 0 0 0 0 0 0 0 0 0 0 0 0
0 0 0 0 0 0 0 0 0 0 0 0 0 -0 0 0 0 0 0 0 0 0 0 0 0 0 0 0 0 0 0 0 0 0 0 0 0 0 0 0 0 0 0 0 0 0 0 0 0
0 0 0 0 0 0 0 0 0 0 0 0 0 -0 0 0 0 0 0 0 0 0 0 0 0 0 0 0 0 0 0 0 0 0 0 0 0 0 0 0 0 0 0 0 0 0 0 0 0
0 0 0 0 0 0 0 0 0 0 0 0 0 -0 0 0 0 0 0 0 0 0 0 0 0 0 0 0 0 0 0 0 0 0 0 0 0 0 0 0 0 0 0 0 0 0 0 0 0
0 0 0 0 0 0 0 0 0 -0 0 0 0 0 0 0 0 0 0 0 0 0 0 0 0 0 0 0 0 0 0 0 0 0 0 0 0 0 0 0 0 0 0 0 0 0 0 0 0
0 0 0 0 0 0 0 0 0 0 0 0 0 0 0 0 0 0 0 0 0 0 0 0 0 0 0 0 0 0 0 0 0 0 0 0 0 0 0 0 0 0 0 0 0 0 0 0 0
0 0 0 0 0 0 0 0 0 0 0 0 0 0 0 0 0 0 0 0 0 0 0 0 0 0 0 0 0 0 0 0 0 0 0 0 0 0 0 0 0 0 0 0 0 0 0 0 0
0 0 0 0 0 0 0 0 0 0 0 0 0 0 0 0 0 0 0 0 0 0 0 0 0 0 0 0 0 0 0 0 0 0 0 0 0 0 0 0 0 0 0 0 0 0 0 0 0
0 0 0 0 0 0 0 0 0 0 0 0 -0 0 0 0 0 0 0 0 0 0 0 0 0 0 0 0 0 0 0 0 0 0 0 0 0 0 0 0 0 0 0 0 0 0 0 0 0
0 0 0 0 0 0 0 0 -0 0 0 0 -0 -0 -0 0 0 0 0 0 0 0 0 0 0 0 0 0 0 0 0 0 0 0 0 0 0 0 0 0 0 0 0 0 0 0 0 0 0
0 0 0 0 0 0 0 -0 -0 -0 0 0 0 0 0 0 0 0 0 0 0 0 0 0 0 0 0 0 0 0 0 0 0 0 0 0 0 0 0 0 0 0 0 0 0 0 0 0 0
0 0 0 0 0 0 0 -0 -0 -0 0 0 0 0 0 0 0 0 0 0 0 0 0 0 0 0 0 0 0 0 0 0 0 0 0 0 0 0 0 0 0 0 0 0 0 0 0 0 0
0 0 0 0 0 0 0 0 -0 -0 -0 0 0 0 0 0 0 0 0 0 0 0 0 0 0 0 0 0 0 0 0 0 0 0 0 0 0 0 0 0 0 0 0 0 0 0 0 0 0
0 0 0 0 0 0 0 0 0 -0 -0 -0 0 0 0 0 0 0 0 0 0 0 0 0 0 0 0 0 0 0 0 0 0 0 0 0 0 0 0 0 0 0 0 0 0 0 0 0 0
0 0 0 0 0 0 0 0 0 0 0 -0 0 0 0 0 0 0 0 0 0 0 0 0 0 0 0 0 0 0 0 0 0 0 0 0 0 0 0 0 0 0 0 0 0 0 0 0 0
0 0 0 0 0 0 0 0 0 -0 -0 -0 0 0 0 0 0 0 0 0 0 0 0 0 0 0 0 0 0 0 0 0 0 0 0 0 0 0 0 0 0 0 0 0 0 0 0 0 0
0 0 0 0 0 0 0 0 0 -0 -0 -0 0 0 0 0 0 0 0 0 0 0 0 0 0 0 0 0 0 0 0 0 0 0 0 0 0 0 0 0 0 0 0 0 0 0 0 0 0
0 0 0 0 0 0 0 0 0 0 -0 -0 0 0 0 0 0 0 0 0 0 0 0 0 0 0 0 0 0 0 0 0 0 0 0 0 0 0 0 0 0 0 0 0 0 0 0 0 0
0 0 0 0 0 0 0 0 -0 -0 0 -0 0 0 0 0 0 0 0 -0 0 0 0 0 0 0 0 0 0 0 0 0 0 0 0 0 0 0 0 0 0 0 0 0 0 0 0 0 0
0 0 0 0 0 0 0 -0 0 0 0 -0 -0 -0 0 0 0 0 0 0 0 0 0 0 0 0 0 0 0 0 0 0 0 0 0 0 0 0 0 0 0 0 0 0 0 0 0 0 0
Wind_Speed_500mb
23 24 27 13 8 8 3 1 1 6 5 6 21 10 9 5 8 4 11 33 33 27 31 34 30 27 23 16 12 9 15 12 17 22 25 25 26 27 30 33 38 32 36 36 31 36 36 37 40
24 19 14 7 8 6 7 5 5 5 7 20 17 11 3 4 6 3 29 31 34 29 32 36 32 27 25 18 15 10 11 16 23 24 24 26 26 28 28 30 36 30 31 33 32 35 35 35 36
23 16 9 7 5 4 3 5 4 6 20 8 7 5 4 4 7 13 24 32 37 34 34 37 33 29 24 21 17 11 11 17 23 14 23 25 23 25 23 28 32 28 32 31 29 31 31 32 33
20 8 10 7 3 3 5 2 9 18 4 5 4 3 5 9 7 20 29 31 35 34 36 40 37 31 26 24 19 14 10 14 25 16 20 20 19 22 22 24 28 26 29 29 28 28 29 29 29
14 7 7 6 4 7 6 7 26 10 2 3 8 4 5 10 14 29 32 33 32 35 35 40 39 35 31 27 23 15 10 19 29 21 18 17 17 20 20 22 25 23 26 27 26 25 26 26 27
11 6 7 3 4 9 7 7 11 6 2 6 5 4 5 7 18 32 32 32 31 29 34 38 39 36 33 30 24 18 15 15 26 22 17 14 14 19 20 20 22 21 22 23 23 21 21 22 23
14 7 5 3 4 9 9 7 2 6 6 8 4 4 6 14 25 28 32 31 31 32 30 34 38 37 34 30 25 21 19 17 19 21 19 14 13 17 19 19 20 20 19 19 20 17 17 18 18
10 12 5 4 2 2 16 19 15 10 5 7 10 6 5 17 29 31 34 33 34 34 33 33 37 40 37 33 28 24 20 20 20 17 16 16 14 15 17 17 18 19 17 15 16 14 13 13 14
11 7 8 11 6 7 14 18 21 20 12 10 13 17 10 10 33 36 40 41 41 41 38 37 36 39 39 35 31 27 24 21 20 18 17 18 16 17 18 18 18 18 17 14 13 10 9 9 9
6 8 20 19 19 10 12 7 20 13 26 15 26 31 29 16 35 43 49 50 50 49 46 41 39 38 39 37 34 30 28 26 23 22 20 20 19 19 20 20 19 18 16 14 12 11 7 5 4
8 9 5 15 20 19 9 7 9 4 10 20 29 33 37 32 37 47 50 51 51 50 50 47 43 40 39 39 36 33 31 29 28 25 23 22 22 21 20 19 17 16 15 14 12 10 8 5 4
6 15 18 14 29 14 13 14 10 26 40 36 41 50 41 49 47 47 53 54 56 57 52 51 48 45 41 39 37 34 34 33 30 27 26 25 23 22 22 20 19 18 18 16 15 14 12 10 9
8 9 17 39 19 39 20 28 28 27 50 47 33 42 48 49 58 53 55 58 55 59 57 54 52 49 46 44 42 39 36 34 30 30 28 26 25 24 23 22 22 21 20 19 18 16 15 14 14
13 16 14 13 24 26 11 24 14 30 45 45 42 46 41 51 57 60 65 62 61 57 61 57 57 55 52 49 47 43 39 36 37 34 30 28 28 27 26 26 24 24 23 22 21 19 19 19 18
6 6 7 18 14 11 16 19 20 64 54 54 52 49 45 52 56 64 66 62 62 59 60 62 60 58 59 55 52 49 44 42 41 39 35 33 32 30 29 27 26 26 26 26 25 23 21 22 20
5 2 13 5 25 13 19 30 19 41 47 49 42 41 45 50 57 62 65 67 69 64 60 61 64 63 63 61 59 55 51 48 47 44 42 39 36 35 33 32 29 29 30 29 27 26 25 23 23
8 14 11 11 19 6 14 3 15 24 39 50 55 54 50 53 54 59 64 65 68 66 61 63 64 69 66 65 65 62 59 56 53 51 49 46 43 42 40 37 33 32 34 33 30 30 29 27 26
14 9 8 13 12 14 15 27 29 58 45 47 53 53 52 53 56 61 61 66 67 68 67 65 67 69 69 67 69 68 67 65 62 60 59 54 52 49 48 44 41 40 41 39 37 35 34 31 29
9 13 22 6 11 12 21 27 26 51 41 47 61 71 80 76 67 64 59 66 68 73 74 73 71 72 72 78 77 76 79 74 72 69 65 63 60 57 55 52 49 48 49 44 41 40 40 37 33
23 28 30 9 8 11 14 36 23 36 48 53 64 67 78 93 92 78 71 65 71 74 78 79 79 78 74 78 80 80 78 78 76 73 73 69 67 64 63 59 56 53 53 52 50 48 47 44 40
28 33 18 11 5 8 13 42 30 31 68 64 77 85 78 91 96 102 88 83 73 79 80 81 83 82 79 81 83 82 82 82 84 84 82 78 74 71 70 65 63 59 58 59 55 53 53 50 45
37 29 36 30 13 21 11 32 12 13 27 24 55 68 79 95 106 99 105 97 94 84 74 86 83 85 86 86 90 91 91 91 89 84 82 83 79 80 75 71 71 67 64 63 61 56 56 55 53
13 9 22 24 24 20 29 16 12 22 32 31 35 71 84 92 95 99 110 115 112 92 87 88 84 88 89 92 93 93 94 95 91 85 83 83 81 84 82 80 78 76 72 70 67 64 62 60 61
7 10 18 17 14 21 51 27 42 28 33 25 32 65 72 79 79 83 90 100 109 103 95 94 93 91 90 93 95 96 94 94 95 94 91 85 80 75 80 85 87 82 79 77 72 68 65 65 64
26 14 9 9 10 19 6 19 45 17 21 18 28 54 65 55 61 69 78 78 88 99 103 96 96 94 92 91 98 95 93 92 92 96 94 85 81 78 74 79 84 85 83 82 77 75 72 70 70
13 16 8 8 7 6 4 21 14 16 41 54 51 65 76 68 65 55 63 60 71 81 87 93 102 105 101 94 93 93 91 95 93 97 89 82 82 75 69 71 72 73 76 75 77 79 76 75 74
12 22 21 11 5 5 11 17 13 19 26 25 47 62 67 62 61 58 68 72 66 67 73 83 85 89 96 98 93 94 94 94 95 91 83 83 79 75 73 67 65 64 65 66 68 72 75 76 75
10 13 9 13 16 13 11 12 16 14 25 20 19 25 43 46 48 48 56 63 63 69 61 65 69 74 90 96 97 97 93 90 88 91 88 82 76 74 70 67 64 63 61 60 62 65 67 70 70
14 8 9 5 6 9 6 12 15 27 18 15 16 29 41 53 55 43 45 56 59 60 52 51 63 67 76 90 92 94 94 90 86 88 88 84 76 69 67 64 62 60 57 57 61 63 64 65 62
26 18 17 7 8 7 4 23 3 15 16 12 22 30 30 51 49 44 44 43 33 46 63 52 51 63 65 72 81 84 84 84 82 82 84 83 77 70 65 62 61 58 57 58 60 62 63 61 57
Wind_Direction_500mb
333 334 342 354 49 60 24 5 237 144 153 170 146 153 202 168 166 194 169 159 165 167 161 159 156 157 155 142 141 147 124 108 109 112 111 110 108 104 103 106 108 104 100 105 99 90 87 86 81
343 343 357 27 75 51 300 279 211 205 141 128 132 128 141 273 186 192 153 162 163 167 164 162 161 164 159 156 157 149 119 113 123 118 112 111 111 106 104 107 111 109 104 104 97 92 89 87 85
349 354 32 82 96 139 245 243 212 138 135 144 140 172 186 254 213 165 160 163 160 164 166 166 165 170 169 170 176 161 136 131 125 115 121 116 109 110 107 111 116 112 105 102 97 91 87 89 86
1 26 61 74 15 266 222 255 157 147 232 202 226 165 208 201 178 174 165 166 163 164 167 173 173 175 178 184 182 172 164 133 128 144 134 124 112 109 113 112 120 120 112 107 99 90 88 88 88
23 41 59 79 320 277 276 276 157 159 191 187 183 257 237 217 216 180 172 168 170 167 170 175 179 180 185 188 188 192 186 143 145 160 139 128 122 114 117 122 127 127 117 112 108 96 94 92 92
68 49 48 15 302 283 313 167 150 183 198 175 235 216 258 207 189 179 176 172 170 174 172 178 182 188 191 193 196 199 201 189 162 159 149 139 128 128 126 128 133 131 123 120 112 104 100 92 90
114 86 144 219 255 309 35 331 287 205 205 244 227 175 280 198 174 180 176 179 177 178 181 184 187 191 193 195 198 202 204 203 176 172 164 152 143 138 133 134 135 138 136 129 121 115 105 95 92
122 106 84 252 220 282 13 360 360 286 268 254 206 226 285 195 180 180 184 188 189 188 186 192 196 197 197 198 201 207 211 200 186 181 167 164 153 150 143 139 144 149 148 142 130 122 107 98 95
139 80 159 191 182 265 355 22 1 328 290 258 231 237 264 206 196 190 193 194 199 197 196 197 202 203 203 204 207 208 211 204 185 183 181 177 167 162 155 154 159 159 161 156 147 142 128 109 99
150 151 206 181 175 200 304 327 335 346 327 283 264 258 250 238 210 210 207 206 205 203 203 200 204 207 206 205 207 210 206 201 196 194 192 185 180 173 171 171 172 173 171 171 174 175 166 132 119
152 186 186 248 201 223 200 285 250 255 291 286 286 292 262 237 219 219 224 223 221 212 208 207 205 208 211 209 208 209 208 203 201 198 199 197 193 189 187 185 184 183 185 187 195 204 209 208 210
170 235 193 241 229 218 221 201 220 232 258 276 299 284 282 248 231 232 232 230 226 223 218 213 211 210 213 213 212 212 211 207 205 203 204 206 201 199 198 196 196 196 198 200 205 217 234 245 242
172 231 230 244 260 239 249 230 222 221 265 274 283 292 271 263 247 239 240 234 231 229 225 221 217 216 216 217 216 215 214 214 211 211 211 210 211 205 205 207 207 208 210 213 218 227 240 248 250
194 227 237 252 254 256 264 270 203 253 258 250 264 278 276 262 256 244 237 238 236 234 229 226 223 222 221 223 223 222 221 218 218 217 218 216 211 212 208 213 215 218 218 222 227 231 240 250 254
202 268 286 246 237 217 268 273 219 252 260 261 254 258 272 264 252 250 246 246 244 239 231 228 227 227 228 227 229 227 226 226 226 224 222 221 218 217 216 216 220 221 225 228 232 238 243 250 256
196 189 249 208 190 229 163 265 270 257 248 246 255 254 261 263 257 255 251 247 247 240 238 232 230 230 231 232 233 233 231 230 231 229 228 228 226 224 224 224 222 222 229 233 235 240 244 249 256
184 254 243 291 195 136 182 263 279 287 245 252 248 249 254 260 258 257 255 250 247 247 241 237 233 232 234 235 236 236 237 236 235 234 232 232 232 231 231 231 228 229 233 237 240 243 247 250 255
219 226 216 215 221 195 221 239 270 272 271 265 268 253 251 252 254 255 258 256 249 247 244 241 236 236 234 236 237 238 239 238 237 236 236 235 235 234 233 233 232 233 237 239 242 247 251 253 255
281 238 238 219 221 214 240 251 244 267 270 261 265 266 259 251 246 254 260 257 253 248 244 242 238 235 232 232 233 234 237 237 237 236 237 237 236 236 237 237 235 235 240 244 248 250 253 255 256
228 249 262 263 210 202 279 268 246 261 260 254 263 262 262 263 252 251 250 254 251 251 248 245 242 237 235 235 236 237 239 241 242 242 241 238 237 238 238 239 240 240 242 244 245 248 252 254 253
236 240 250 262 321 250 293 282 266 250 254 254 249 253 254 255 257 248 247 245 248 248 246 246 245 242 239 238 237 236 240 242 242 241 241 239 239 240 240 240 243 242 243 246 248 250 253 256 255
234 222 242 258 272 264 137 284 250 271 270 236 242 250 249 251 256 250 246 242 241 242 247 247 247 246 244 239 239 237 238 239 243 243 243 243 242 243 242 243 243 244 245 247 249 250 252 254 253
236 161 222 229 239 263 244 266 295 217 250 260 240 253 253 255 256 253 248 244 237 239 245 249 249 248 246 243 241 242 240 244 247 249 249 248 246 244 245 245 245 245 246 247 249 249 249 252 253
108 235 273 264 261 227 243 219 268 241 246 256 255 254 263 267 263 261 256 250 248 239 244 247 248 247 246 246 242 241 243 244 245 247 248 248 249 247 245 246 246 247 248 249 249 252 251 253 253
191 197 241 232 203 250 210 207 245 297 283 235 250 265 272 270 270 266 255 250 246 240 241 247 247 245 245 245 242 241 244 246 246 248 248 249 250 250 246 244 244 246 248 249 249 250 252 252 253
202 207 219 208 213 285 37 227 260 239 250 260 270 274 273 273 281 274 263 256 253 250 247 246 246 245 242 242 244 243 243 243 244 246 248 248 249 251 253 251 249 248 248 249 249 250 252 253 253
181 220 221 271 161 245 216 284 270 246 270 284 264 266 271 286 288 274 272 269 260 247 248 244 246 241 238 240 242 240 242 242 244 247 248 248 249 250 252 252 252 251 249 248 248 249 250 253 255
184 134 165 202 247 242 250 254 237 298 278 280 298 303 317 318 310 295 290 280 266 253 256 249 243 240 238 240 240 240 242 245 245 244 245 247 249 249 251 251 251 251 249 248 247 247 248 251 254
171 191 192 184 188 224 288 252 207 224 247 246 286 344 338 336 334 326 292 286 260 246 249 250 242 241 239 237 238 240 240 241 242 243 244 245 249 249 249 251 251 252 250 246 244 246 249 251 254
211 188 205 232 202 226 208 264 354 241 233 267 295 305 342 345 343 342 330 305 276 259 241 250 246 242 241 240 237 237 240 241 242 243 242 244 246 249 249 251 250 249 248 245 244 246 249 252 252
Wind_Speed_850mb
23 24 27 13 8 8 3 1 1 6 5 6 21 10 9 5 8 4 11 33 33 27 31 34 30 27 23 16 12 9 15 12 17 22 25 25 26 27 30 33 38 32 36 36 31 36 36 37 40
24 19 14 7 8 6 7 5 5 5 7 20 17 11 3 4 6 3 29 31 34 29 32 36 32 27 25 18 15 10 11 16 23 24 24 26 26 28 28 30 36 30 31 33 32 35 35 35 36
23 16 9 7 5 4 3 5 4 6 20 8 7 5 4 4 7 13 24 32 37 34 34 37 33 29 24 21 17 11 11 17 23 14 23 25 23 25 23 28 32 28 32 31 29 31 31 32 33
20 8 10 7 3 3 5 2 9 18 4 5 4 3 5 9 7 20 29 31 35 34 36 40 37 31 26 24 19 14 10 14 25 16 20 20 19 22 22 24 28 26 29 29 28 28 29 29 29
14 7 7 6 4 7 6 7 26 10 2 3 8 4 5 10 14 29 32 33 32 35 35 40 39 35 31 27 23 15 10 19 29 21 18 17 17 20 20 22 25 23 26 27 26 25 26 26 27
11 6 7 3 4 9 7 7 11 6 2 6 5 4 5 7 18 32 32 32 31 29 34 38 39 36 33 30 24 18 15 15 26 22 17 14 14 19 20 20 22 21 22 23 23 21 21 22 23
14 7 5 3 4 9 9 7 2 6 6 8 4 4 6 14 25 28 32 31 31 32 30 34 38 37 34 30 25 21 19 17 19 21 19 14 13 17 19 19 20 20 19 19 20 17 17 18 18
10 12 5 4 2 2 16 19 15 10 5 7 10 6 5 17 29 31 34 33 34 34 33 33 37 40 37 33 28 24 20 20 20 17 16 16 14 15 17 17 18 19 17 15 16 14 13 13 14
11 7 8 11 6 7 14 18 21 20 12 10 13 17 10 10 33 36 40 41 41 41 38 37 36 39 39 35 31 27 24 21 20 18 17 18 16 17 18 18 18 18 17 14 13 10 9 9 9
6 8 20 19 19 10 12 7 20 13 26 15 26 31 29 16 35 43 49 50 50 49 46 41 39 38 39 37 34 30 28 26 23 22 20 20 19 19 20 20 19 18 16 14 12 11 7 5 4
8 9 5 15 20 19 9 7 9 4 10 20 29 33 37 32 37 47 50 51 51 50 50 47 43 40 39 39 36 33 31 29 28 25 23 22 22 21 20 19 17 16 15 14 12 10 8 5 4
6 15 18 14 29 14 13 14 10 26 40 36 41 50 41 49 47 47 53 54 56 57 52 51 48 45 41 39 37 34 34 33 30 27 26 25 23 22 22 20 19 18 18 16 15 14 12 10 9
8 9 17 39 19 39 20 28 28 27 50 47 33 42 48 49 58 53 55 58 55 59 57 54 52 49 46 44 42 39 36 34 30 30 28 26 25 24 23 22 22 21 20 19 18 16 15 14 14
13 16 14 13 24 26 11 24 14 30 45 45 42 46 41 51 57 60 65 62 61 57 61 57 57 55 52 49 47 43 39 36 37 34 30 28 28 27 26 26 24 24 23 22 21 19 19 19 18
6 6 7 18 14 11 16 19 20 64 54 54 52 49 45 52 56 64 66 62 62 59 60 62 60 58 59 55 52 49 44 42 41 39 35 33 32 30 29 27 26 26 26 26 25 23 21 22 20
5 2 13 5 25 13 19 30 19 41 47 49 42 41 45 50 57 62 65 67 69 64 60 61 64 63 63 61 59 55 51 48 47 44 42 39 36 35 33 32 29 29 30 29 27 26 25 23 23
8 14 11 11 19 6 14 3 15 24 39 50 55 54 50 53 54 59 64 65 68 66 61 63 64 69 66 65 65 62 59 56 53 51 49 46 43 42 40 37 33 32 34 33 30 30 29 27 26
14 9 8 13 12 14 15 27 29 58 45 47 53 53 52 53 56 61 61 66 67 68 67 65 67 69 69 67 69 68 67 65 62 60 59 54 52 49 48 44 41 40 41 39 37 35 34 31 29
9 13 22 6 11 12 21 27 26 51 41 47 61 71 80 76 67 64 59 66 68 73 74 73 71 72 72 78 77 76 79 74 72 69 65 63 60 57 55 52 49 48 49 44 41 40 40 37 33
23 28 30 9 8 11 14 36 23 36 48 53 64 67 78 93 92 78 71 65 71 74 78 79 79 78 74 78 80 80 78 78 76 73 73 69 67 64 63 59 56 53 53 52 50 48 47 44 40
28 33 18 11 5 8 13 42 30 31 68 64 77 85 78 91 96 102 88 83 73 79 80 81 83 82 79 81 83 82 82 82 84 84 82 78 74 71 70 65 63 59 58 59 55 53 53 50 45
37 29 36 30 13 21 11 32 12 13 27 24 55 68 79 95 106 99 105 97 94 84 74 86 83 85 86 86 90 91 91 91 89 84 82 83 79 80 75 71 71 67 64 63 61 56 56 55 53
13 9 22 24 24 20 29 16 12 22 32 31 35 71 84 92 95 99 110 115 112 92 87 88 84 88 89 92 93 93 94 95 91 85 83 83 81 84 82 80 78 76 72 70 67 64 62 60 61
7 10 18 17 14 21 51 27 42 28 33 25 32 65 72 79 79 83 90 100 109 103 95 94 93 91 90 93 95 96 94 94 95 94 91 85 80 75 80 85 87 82 79 77 72 68 65 65 64
26 14 9 9 10 19 6 19 45 17 21 18 28 54 65 55 61 69 78 78 88 99 103 96 96 94 92 91 98 95 93 92 92 96 94 85 81 78 74 79 84 85 83 82 77 75 72 70 70
13 16 8 8 7 6 4 21 14 16 41 54 51 65 76 68 65 55 63 60 71 81 87 93 102 105 101 94 93 93 91 95 93 97 89 82 82 75 69 71 72 73 76 75 77 79 76 75 74
12 22 21 11 5 5 11 17 13 19 26 25 47 62 67 62 61 58 68 72 66 67 73 83 85 89 96 98 93 94 94 94 95 91 83 83 79 75 73 67 65 64 65 66 68 72 75 76 75
10 13 9 13 16 13 11 12 16 14 25 20 19 25 43 46 48 48 56 63 63 69 61 65 69 74 90 96 97 97 93 90 88 91 88 82 76 74 70 67 64 63 61 60 62 65 67 70 70
14 8 9 5 6 9 6 12 15 27 18 15 16 29 41 53 55 43 45 56 59 60 52 51 63 67 76 90 92 94 94 90 86 88 88 84 76 69 67 64 62 60 57 57 61 63 64 65 62
26 18 17 7 8 7 4 23 3 15 16 12 22 30 30 51 49 44 44 43 33 46 63 52 51 63 65 72 81 84 84 84 82 82 84 83 77 70 65 62 61 58 57 58 60 62 63 61 57
Wind_Direction_850mb
333 334 342 354 49 60 24 5 237 144 153 170 146 153 202 168 166 194 169 159 165 167 161 159 156 157 155 142 141 147 124 108 109 112 111 110 108 104 103 106 108 104 100 105 99 90 87 86 81
343 343 357 27 75 51 300 279 211 205 141 128 132 128 141 273 186 192 153 162 163 167 164 162 161 164 159 156 157 149 119 113 123 118 112 111 111 106 104 107 111 109 104 104 97 92 89 87 85
349 354 32 82 96 139 245 243 212 138 135 144 140 172 186 254 213 165 160 163 160 164 166 166 165 170 169 170 176 161 136 131 125 115 121 116 109 110 107 111 116 112 105 102 97 91 87 89 86
1 26 61 74 15 266 222 255 157 147 232 202 226 165 208 201 178 174 165 166 163 164 167 173 173 175 178 184 182 172 164 133 128 144 134 124 112 109 113 112 120 120 112 107 99 90 88 88 88
23 41 59 79 320 277 276 276 157 159 191 187 183 257 237 217 216 180 172 168 170 167 170 175 179 180 185 188 188 192 186 143 145 160 139 128 122 114 117 122 127 127 117 112 108 96 94 92 92
68 49 48 15 302 283 313 167 150 183 198 175 235 216 258 207 189 179 176 172 170 174 172 178 182 188 191 193 196 199 201 189 162 159 149 139 128 128 126 128 133 131 123 120 112 104 100 92 90
114 86 144 219 255 309 35 331 287 205 205 244 227 175 280 198 174 180 176 179 177 178 181 184 187 191 193 195 198 202 204 203 176 172 164 152 143 138 133 134 135 138 136 129 121 115 105 95 92
122 106 84 252 220 282 13 360 360 286 268 254 206 226 285 195 180 180 184 188 189 188 186 192 196 197 197 198 201 207 211 200 186 181 167 164 153 150 143 139 144 149 148 142 130 122 107 98 95
139 80 159 191 182 265 355 22 1 328 290 258 231 237 264 206 196 190 193 194 199 197 196 197 202 203 203 204 207 208 211 204 185 183 181 177 167 162 155 154 159 159 161 156 147 142 128 109 99
150 151 206 181 175 200 304 327 335 346 327 283 264 258 250 238 210 210 207 206 205 203 203 200 204 207 206 205 207 210 206 201 196 194 192 185 180 173 171 171 172 173 171 171 174 175 166 132 119
152 186 186 248 201 223 200 285 250 255 291 286 286 292 262 237 219 219 224 223 221 212 208 207 205 208 211 209 208 209 208 203 201 198 199 197 193 189 187 185 184 183 185 187 195 204 209 208 210
170 235 193 241 229 218 221 201 220 232 258 276 299 284 282 248 231 232 232 230 226 223 218 213 211 210 213 213 212 212 211 207 205 203 204 206 201 199 198 196 196 196 198 200 205 217 234 245 242
172 231 230 244 260 239 249 230 222 221 265 274 283 292 271 263 247 239 240 234 231 229 225 221 217 216 216 217 216 215 214 214 211 211 211 210 211 205 205 207 207 208 210 213 218 227 240 248 250
194 227 237 252 254 256 264 270 203 253 258 250 264 278 276 262 256 244 237 238 236 234 229 226 223 222 221 223 223 222 221 218 218 217 218 216 211 212 208 213 215 218 218 222 227 231 240 250 254
202 268 286 246 237 217 268 273 219 252 260 261 254 258 272 264 252 250 246 246 244 239 231 228 227 227 228 227 229 227 226 226 226 224 222 221 218 217 216 216 220 221 225 228 232 238 243 250 256
196 189 249 208 190 229 163 265 270 257 248 246 255 254 261 263 257 255 251 247 247 240 238 232 230 230 231 232 233 233 231 230 231 229 228 228 226 224 224 224 222 222 229 233 235 240 244 249 256
184 254 243 291 195 136 182 263 279 287 245 252 248 249 254 260 258 257 255 250 247 247 241 237 233 232 234 235 236 236 237 236 235 234 232 232 232 231 231 231 228 229 233 237 240 243 247 250 255
219 226 216 215 221 195 221 239 270 272 271 265 268 253 251 252 254 255 258 256 249 247 244 241 236 236 234 236 237 238 239 238 237 236 236 235 235 234 233 233 232 233 237 239 242 247 251 253 255
281 238 238 219 221 214 240 251 244 267 270 261 265 266 259 251 246 254 260 257 253 248 244 242 238 235 232 232 233 234 237 237 237 236 237 237 236 236 237 237 235 235 240 244 248 250 253 255 256
228 249 262 263 210 202 279 268 246 261 260 254 263 262 262 263 252 251 250 254 251 251 248 245 242 237 235 235 236 237 239 241 242 242 241 238 237 238 238 239 240 240 242 244 245 248 252 254 253
236 240 250 262 321 250 293 282 266 250 254 254 249 253 254 255 257 248 247 245 248 248 246 246 245 242 239 238 237 236 240 242 242 241 241 239 239 240 240 240 243 242 243 246 248 250 253 256 255
234 222 242 258 272 264 137 284 250 271 270 236 242 250 249 251 256 250 246 242 241 242 247 247 247 246 244 239 239 237 238 239 243 243 243 243 242 243 242 243 243 244 245 247 249 250 252 254 253
236 161 222 229 239 263 244 266 295 217 250 260 240 253 253 255 256 253 248 244 237 239 245 249 249 248 246 243 241 242 240 244 247 249 249 248 246 244 245 245 245 245 246 247 249 249 249 252 253
108 235 273 264 261 227 243 219 268 241 246 256 255 254 263 267 263 261 256 250 248 239 244 247 248 247 246 246 242 241 243 244 245 247 248 248 249 247 245 246 246 247 248 249 249 252 251 253 253
191 197 241 232 203 250 210 207 245 297 283 235 250 265 272 270 270 266 255 250 246 240 241 247 247 245 245 245 242 241 244 246 246 248 248 249 250 250 246 244 244 246 248 249 249 250 252 252 253
202 207 219 208 213 285 37 227 260 239 250 260 270 274 273 273 281 274 263 256 253 250 247 246 246 245 242 242 244 243 243 243 244 246 248 248 249 251 253 251 249 248 248 249 249 250 252 253 253
181 220 221 271 161 245 216 284 270 246 270 284 264 266 271 286 288 274 272 269 260 247 248 244 246 241 238 240 242 240 242 242 244 247 248 248 249 250 252 252 252 251 249 248 248 249 250 253 255
184 134 165 202 247 242 250 254 237 298 278 280 298 303 317 318 310 295 290 280 266 253 256 249 243 240 238 240 240 240 242 245 245 244 245 247 249 249 251 251 251 251 249 248 247 247 248 251 254
171 191 192 184 188 224 288 252 207 224 247 246 286 344 338 336 334 326 292 286 260 246 249 250 242 241 239 237 238 240 240 241 242 243 244 245 249 249 249 251 251 252 250 246 244 246 249 251 254
211 188 205 232 202 226 208 264 354 241 233 267 295 305 342 345 343 342 330 305 276 259 241 250 246 242 241 240 237 237 240 241 242 243 242 244 246 249 249 251 250 249 248 245 244 246 249 252 252